This demonstration page uses our WeatherBlox Daily Observations layout. Learn more.

Left ArrowRight Arrow

39.51506, -84.39828

Hourly Observations for December 3, 2015

Temp ( °F °C ) Dew Point ( °F °C ) Humidity (%) Winds ( mph kmh ) Pressure ( in mb ) Visibility ( mi km ) Precip ( " mm )
12:15 am 00:15 Cloudy 37 2.6 32 -0.2 82 82 WNW 8 13 30.06 1018 10 16.0934 N/A
12:35 am 00:35 Cloudy with Light Snow 37 2.6 31 -0.5 80 80 WNW 10 17 30.09 1019 10 16.0934 N/A
12:55 am 00:55 Cloudy 37 2.6 31 -0.6 80 80 WNW 10 17 30.09 1019 10 16.0934 N/A
1:15 am 01:15 Mostly Cloudy 36 2.2 30 -1.2 78 78 WNW 10 17 30.09 1019 10 16.0934 N/A
1:35 am 01:35 Mostly Cloudy 37 2.6 31 -0.8 79 79 W 8 13 30.09 1019 10 16.0934 N/A
1:55 am 01:55 Cloudy 37 2.6 31 -0.6 80 80 WNW 7 11 30.09 1019 10 16.0934 N/A
2:15 am 02:15 Cloudy 37 2.6 30 -1.1 77 77 WNW 10 17 30.12 1020 10 16.0934 N/A
2:35 am 02:35 Cloudy 37 2.6 28 -2 72 72 WNW 8 13 30.12 1020 10 16.0934 N/A
2:55 am 02:55 Partly Cloudy 36 2 27 -2.7 71 71 WNW 7 11 30.12 1020 10 16.0934 N/A
3:15 am 03:15 Partly Cloudy 34 1.2 27 -2.6 76 76 WNW 9 15 30.15 1021 10 16.0934 N/A
3:35 am 03:35 Partly Cloudy 34 1.2 28 -2.5 77 77 W 7 11 30.15 1021 10 16.0934 N/A
3:55 am 03:55 Partly Cloudy 34 1.2 28 -2.2 78 78 W 7 11 30.15 1021 10 16.0934 N/A
4:15 am 04:15 Clear 34 1.2 28 -2 79 79 WSW 7 11 30.18 1022 10 16.0934 N/A
4:35 am 04:35 Mostly Cloudy 34 1.2 28 -2 79 79 WSW 5 7 30.18 1022 10 16.0934 N/A
4:55 am 04:55 Mostly Cloudy 34 1.2 28 -2.1 79 79 W 7 11 30.18 1022 10 16.0934 N/A
5:15 am 05:15 Mostly Cloudy 34 1.2 28 -2.1 79 79 W 7 11 30.21 1023 10 16.0934 N/A
5:35 am 05:35 Cloudy 34 1.2 28 -2.2 78 78 W 8 13 30.21 1023 10 16.0934 N/A
5:55 am 05:55 Cloudy 34 1.2 28 -2.3 78 78 W 9 15 30.21 1023 10 16.0934 N/A
6:15 am 06:15 Cloudy 34 1.2 28 -2.2 78 78 W 9 15 30.21 1023 10 16.0934 N/A
6:35 am 06:35 Cloudy 34 1.2 28 -2.3 78 78 W 8 13 30.24 1024 10 16.0934 N/A
6:55 am 06:55 Cloudy 34 1.2 28 -2.3 78 78 W 8 13 30.24 1024 10 16.0934 N/A
7:15 am 07:15 Cloudy 34 1.2 28 -2.3 78 78 W 8 13 30.27 1025 10 16.0934 N/A
7:35 am 07:35 Cloudy 34 1.2 28 -2.2 78 78 W 5 7 30.27 1025 10 16.0934 N/A
7:55 am 07:55 Cloudy 34 1.2 28 -2.4 77 77 W 6 9 30.27 1025 10 16.0934 N/A
8:15 am 08:15 Cloudy 34 1.2 28 -2.2 78 78 W 5 7 30.27 1025 10 16.0934 N/A
8:35 am 08:35 Cloudy 34 1.2 28 -2.2 78 78 W 3 6 30.3 1026 10 16.0934 N/A
8:55 am 08:55 Cloudy 34 1.2 28 -2.2 78 78 W 3 6 30.3 1026 10 16.0934 N/A
9:15 am 09:15 Cloudy 35 1.7 29 -1.6 79 79 W 7 11 30.3 1026 10 16.0934 N/A
9:35 am 09:35 Cloudy 37 2.6 31 -0.8 79 79 W 8 13 30.33 1027 10 16.0934 N/A
9:55 am 09:55 Cloudy 37 2.6 30 -0.9 78 78 W 7 11 30.33 1027 10 16.0934 N/A
10:15 am 10:15 Cloudy 37 2.6 30 -1 77 77 WSW 6 9 30.33 1027 10 16.0934 N/A
10:35 am 10:35 Cloudy 37 2.6 30 -1.1 77 77 W 5 7 30.36 1028 10 16.0934 N/A
10:55 am 10:55 Cloudy 37 2.7 30 -1.2 76 76 W 6 9 30.36 1028 10 16.0934 N/A
11:15 am 11:15 Cloudy 39 4 31 -0.4 73 73 W 5 7 30.36 1028 10 16.0934 N/A
11:35 am 11:35 Cloudy 39 4 31 -0.4 73 73 W 5 7 30.36 1028 10 16.0934 N/A
11:55 am 11:55 Cloudy 39 4 31 -0.5 73 73 W 6 9 30.36 1028 10 16.0934 N/A
12:15 pm 12:15 Cloudy 40 4.2 31 -0.6 71 71 W 3 6 30.36 1028 10 16.0934 N/A
12:35 pm 12:35 Cloudy 40 4.7 32 -0.2 71 71 W 5 7 30.36 1028 10 16.0934 N/A
12:55 pm 12:55 Cloudy 40 4.7 32 -0.1 71 71 W 3 6 30.36 1028 10 16.0934 N/A
1:15 pm 13:15 Cloudy 40 4.7 31 -0.3 70 70 W 7 11 30.36 1028 10 16.0934 N/A
1:35 pm 13:35 Cloudy 42 5.5 32 0.1 69 69 W 7 11 30.36 1028 10 16.0934 N/A
1:55 pm 13:55 Cloudy 42 5.5 32 undefined 68 68 W 7 11 30.36 1028 10 16.0934 N/A
2:15 pm 14:15 Cloudy 42 5.5 32 -0.2 67 67 W 3 6 30.36 1028 10 16.0934 N/A
2:35 pm 14:35 Cloudy 42 5.5 32 -0.1 68 68 N N/A 30.36 1028 10 16.0934 N/A
2:55 pm 14:55 Cloudy 42 5.5 31 -0.5 66 66 WNW 7 11 30.39 1029 10 16.0934 N/A
3:15 pm 15:15 Cloudy 42 5.5 31 -0.6 65 65 WNW 7 11 30.39 1029 10 16.0934 N/A
3:35 pm 15:35 Cloudy 42 5.5 31 -0.7 65 65 WNW 6 9 30.39 1029 10 16.0934 N/A
3:55 pm 15:55 Cloudy 42 5.5 31 -0.5 66 66 NW 8 13 30.39 1029 10 16.0934 N/A
4:15 pm 16:15 Cloudy 42 5.5 31 -0.4 66 66 NW 7 11 30.42 1030 10 16.0934 N/A
4:35 pm 16:35 Cloudy 42 5.5 31 -0.3 67 67 NW 6 9 30.42 1030 10 16.0934 N/A
4:55 pm 16:55 Cloudy 41 4.9 30 -1.1 65 65 NW 7 11 30.42 1030 10 16.0934 N/A
5:15 pm 17:15 Cloudy 40 4.7 30 -1.2 66 66 WNW 7 11 30.42 1030 10 16.0934 N/A
5:35 pm 17:35 Cloudy 40 4.7 29 -1.4 65 65 WNW 5 7 30.42 1030 10 16.0934 N/A
5:55 pm 17:55 Cloudy 40 4.7 30 -1 67 67 W 7 11 30.42 1030 10 16.0934 N/A
6:15 pm 18:15 Cloudy 40 4.7 31 -0.6 69 69 W 5 7 30.45 1031 10 16.0934 N/A
6:35 pm 18:35 Cloudy 40 4.5 31 -0.6 70 70 WNW 3 6 30.45 1031 10 16.0934 N/A
6:55 pm 18:55 Cloudy 39 4 30 -1.2 69 69 WNW 6 9 30.45 1031 10 16.0934 N/A
7:15 pm 19:15 Cloudy 39 4 31 -0.8 71 71 W 3 6 30.45 1031 10 16.0934 N/A
7:35 pm 19:35 Cloudy 39 4 31 -0.6 72 72 WNW 5 7 30.48 1032 10 16.0934 N/A
7:55 pm 19:55 Cloudy 39 4 31 -0.8 71 71 W 3 6 30.48 1032 10 16.0934 N/A
8:15 pm 20:15 Cloudy 39 4 31 -0.7 72 72 W 7 11 30.48 1032 10 16.0934 N/A
8:35 pm 20:35 Cloudy 39 4 30 -0.9 71 71 W 5 7 30.48 1032 10 16.0934 N/A
8:55 pm 20:55 Cloudy 39 4 31 -0.8 71 71 W 3 6 30.48 1032 10 16.0934 N/A
9:15 pm 21:15 Mostly Cloudy 37 2.6 29 -1.5 75 75 N N/A 30.48 1032 10 16.0934 N/A
9:35 pm 21:35 Clear 37 2.6 30 -1.3 76 76 N N/A 30.48 1032 10 16.0934 N/A
9:55 pm 21:55 Clear 34 1.2 30 -1.2 84 84 N N/A 30.48 1032 10 16.0934 N/A
10:15 pm 22:15 Clear 34 1.2 31 -0.8 87 87 N N/A 30.48 1032 10 16.0934 N/A
10:35 pm 22:35 Clear 32 undefined 28 -2 87 87 N N/A 30.48 1032 7 11.26538 N/A
10:55 pm 22:55 Clear 32 undefined 28 -2 87 87 N N/A 30.5 1033 7 11.26538 N/A
11:15 pm 23:15 Clear with Mist and Fog 31 -0.8 27 -2.6 88 88 N N/A 30.5 1033 5 8.0467 N/A
11:35 pm 23:35 Clear with Mist and Fog 29 -1.4 26 -3.1 88 88 N N/A 30.5 1033 4 6.43736 N/A
11:55 pm 23:55 Clear with Mist and Fog 31 -0.6 28 -2.3 88 88 N N/A 30.5 1033 3 4.82802 N/A

Powered by AerisWeather